Regional Weather Roundup
Issued by NWS

Home | Current Version | Previous Version | Graphics & Text | Print | Product List | Glossary On
Versions: 1 2 3 4 5 6 7 8 9 10 11 12 13 14 15 16 17 18 19 20 21 22 23 24 25 26 27 28 29 30 31 32 33 34 35 36 37 38 39 40 41 42 43 44 45 46 47 48 49 50
000
ASUS43 KOAX 092310
RWRNE

WEATHER ROUNDUP FOR NEBRASKA
NATIONAL WEATHER SERVICE OMAHA NE
600 PM CDT WED JUL 09 2014

NOTES: SATELLITE DATA IS BEING USED TO AUGMENT CLOUD COVER ABOVE
       12000 FEET.
       "FAIR" INDICATES FEW OR NO CLOUDS BELOW 12,000 FEET WITH NO
       SIGNIFICANT WEATHER AND/OR OBSTRUCTIONS TO VISIBILITY.

  * THESE STATIONS DO NOT REPORT WEATHER SUCH AS RAIN...SNOW OR FOG.

NEZ001>004-019>022-054>056-100000-
NEBRASKA PANHANDLE

CITY           SKY/WX    TMP DP  RH WIND       PRES   REMARKS
SCOTTSBLUFF    SUNNY     95  52  23 VRB7      29.92F HX  92
ALLIANCE       SUNNY     93  51  23 E10       29.93F HX  90
CHADRON        SUNNY     88  61  40 NE16G23   29.92F
KIMBALL        PTSUNNY   68  55  61 CALM      30.01R
SIDNEY         SUNNY     87  51  28 W8        29.97F
$$

NEZ057>060-069>072-079>082-100000-
SOUTHWEST NEBRASKA

CITY           SKY/WX    TMP DP  RH WIND       PRES   REMARKS
NORTH PLATTE   MOSUNNY   85  59  41 S15       29.90F
IMPERIAL       SUNNY     92  58  31 S17       29.93F HX  91
LEXINGTON      MOSUNNY   89  59  35 S17       29.94F
MCCOOK         SUNNY     89  61  38 S18G25    29.93F
OGALLALA         N/A    N/A N/A N/A MISG        N/A
$$

NEZ005>010-023>029-035>040-094-100000-
NORTH CENTRAL NEBRASKA

CITY           SKY/WX    TMP DP  RH WIND       PRES   REMARKS
VALENTINE      PTSUNNY   70  59  68 E15       30.01F
AINSWORTH      PTSUNNY   64  59  85 E14G22    30.01F
BROKEN BOW     MOSUNNY   75  65  70 SE15G25   29.96F
O`NEILL        CLOUDY    64  59  83 E7        30.03F
ORD            CLOUDY    67  62  84 E13       29.97F
THEDFORD       MOSUNNY   78  63  59 E20G28    29.97F
$$

NEZ041-046>049-061>064-073>077-083>087-100000-
SOUTH CENTRAL NEBRASKA

CITY           SKY/WX    TMP DP  RH WIND       PRES   REMARKS
GRAND ISLAND   PTSUNNY   78  61  55 NE14      30.03R
AURORA         CLOUDY    78  61  56 E10       30.03R
HASTINGS       PTSUNNY   82  59  45 SE13      29.97F
HEBRON         PTSUNNY   87  56  34 S9        29.97F
HOLDREGE       MOSUNNY   85  55  35 S12G21    29.96F
KEARNEY *      MOSUNNY   82  63  51 SE14      29.95F
YORK           CLOUDY    75  64  69 NE13      30.02S
$$

NEZ011>018-030>034-042>045-100000-
NORTHEAST NEBRASKA

CITY           SKY/WX    TMP DP  RH WIND       PRES   REMARKS
NORFOLK        CLOUDY    69  63  81 S8        30.03F
ALBION         LGT RAIN  67  59  77 SE7       30.04F
BLAIR          PTSUNNY   78  60  54 S3        30.02S
FREMONT        LGT RAIN  79  60  50 SW5       30.04R
TEKAMAH        MOSUNNY   82  60  47 S9        30.00F
WAYNE          PTSUNNY   80  60  51 SW16G23   30.02S
$$

NEZ050>053-065>068-078-088>093-100000-
SOUTHEAST NEBRASKA

CITY           SKY/WX    TMP DP  RH WIND       PRES   REMARKS
LINCOLN        CLOUDY    79  61  53 N6        30.03S
OMAHA EPPLEY   PTSUNNY   83  53  35 CALM      30.01F
BEATRICE       CLOUDY    77  62  59 E5        30.00F
FALLS CITY     PTSUNNY   80  61  52 SE6       30.01F
NEBRASKA CITY  CLOUDY    79  58  48 CALM      30.03R
PLATTSMOUTH    CLOUDY    80  58  47 SE3       30.03R
$$

NEZ044-045-051>053-067-100000-
OMAHA AREA

CITY           SKY/WX    TMP DP  RH WIND       PRES   REMARKS
OMAHA EPPLEY   PTSUNNY   83  53  35 CALM      30.01F
BLAIR          PTSUNNY   78  60  54 S3        30.02S
FREMONT        LGT RAIN  79  60  50 SW5       30.04R
MILLARD        PTSUNNY   79  61  53 SE3       30.01S
OFFUTT AFB     PTSUNNY   81  59  46 SW6       30.01F
PLATTSMOUTH    CLOUDY    80  58  47 SE3       30.03R
WAHOO          MOCLDY    77  61  58 W7        30.04R
$$


USA.gov is the U.S. government's official web portal to all federal, state and local government web resources and services.